Time,TemperatureF,DewpointF,PressureIn,WindDirection,WindDirectionDegrees,WindSpeedMPH,WindSpeedGustMPH,Humidity,HourlyPrecipIn,Conditions,Clouds,dailyrainin,SoftwareType,DateUTC
2013-04-19 00:02:00,55.0,-99.9,30.19,South,177,1.0,3.0,-999,-99.99,,,-99.99,,2013-04-19 07:02:00,
2013-04-19 00:12:00,55.0,-99.9,30.19,WNW,290,2.0,3.0,-999,-99.99,,,-99.99,,2013-04-19 07:12:00,
2013-04-19 00:22:00,54.0,-99.9,30.19,West,281,3.0,4.0,-999,-99.99,,,-99.99,,2013-04-19 07:22:00,
2013-04-19 00:32:00,54.0,-99.9,30.19,WNW,298,2.0,3.0,-999,-99.99,,,-99.99,,2013-04-19 07:32:00,
2013-04-19 00:42:00,54.0,-99.9,30.19,NW,323,2.0,3.0,-999,-99.99,,,-99.99,,2013-04-19 07:42:00,
2013-04-19 00:52:00,54.0,-99.9,30.19,NNW,344,2.0,2.0,-999,-99.99,,,-99.99,,2013-04-19 07:52:00,
2013-04-19 01:02:00,53.0,-99.9,30.19,NW,323,2.0,3.0,-999,-99.99,,,-99.99,,2013-04-19 08:02:00,
2013-04-19 01:12:00,53.0,-99.9,30.19,NNW,334,1.0,2.0,-999,-99.99,,,-99.99,,2013-04-19 08:12:00,
2013-04-19 01:22:00,54.0,-99.9,30.19,North,358,0.0,1.0,-999,-99.99,,,-99.99,,2013-04-19 08:22:00,
2013-04-19 01:33:00,53.0,-99.9,30.19,NNW,335,2.0,3.0,-999,-99.99,,,-99.99,,2013-04-19 08:33:00,
2013-04-19 01:42:00,53.0,-99.9,30.19,WNW,299,2.0,3.0,-999,-99.99,,,-99.99,,2013-04-19 08:42:00,
2013-04-19 01:52:00,53.0,-99.9,30.19,West,260,2.0,4.0,-999,-99.99,,,-99.99,,2013-04-19 08:52:00,
2013-04-19 02:01:00,53.0,-99.9,30.19,NNW,335,0.0,2.0,-999,-99.99,,,-99.99,,2013-04-19 09:01:00,
2013-04-19 02:12:00,53.0,-99.9,30.19,East,92,0.0,3.0,-999,-99.99,,,-99.99,,2013-04-19 09:12:00,
2013-04-19 02:22:00,53.0,-99.9,30.18,NNE,27,2.0,2.0,-999,-99.99,,,-99.99,,2013-04-19 09:22:00,
2013-04-19 02:33:00,53.0,-99.9,30.18,North,7,1.0,2.0,-999,-99.99,,,-99.99,,2013-04-19 09:33:00,
2013-04-19 02:43:00,53.0,-99.9,30.18,NNW,337,-999.0,2.0,-999,-99.99,,,-99.99,,2013-04-19 09:43:00,
2013-04-19 02:52:00,53.0,-99.9,30.18,WNW,287,2.0,2.0,-999,-99.99,,,-99.99,,2013-04-19 09:52:00,
2013-04-19 03:02:00,53.0,-99.9,30.18,WNW,299,2.0,2.0,-999,-99.99,,,-99.99,,2013-04-19 10:02:00,
2013-04-19 03:13:00,53.0,-99.9,30.18,North,349,1.0,2.0,-999,-99.99,,,-99.99,,2013-04-19 10:13:00,
2013-04-19 03:23:00,52.0,-99.9,30.18,NNW,328,3.0,3.0,-999,-99.99,,,-99.99,,2013-04-19 10:23:00,
2013-04-19 03:33:00,53.0,-99.9,30.18,North,359,0.0,2.0,-999,-99.99,,,-99.99,,2013-04-19 10:33:00,
2013-04-19 03:42:00,53.0,-99.9,30.18,NNE,25,1.0,2.0,-999,-99.99,,,-99.99,,2013-04-19 10:42:00,
2013-04-19 03:52:00,53.0,-99.9,30.18,East,95,1.0,2.0,-999,-99.99,,,-99.99,,2013-04-19 10:52:00,
2013-04-19 04:03:00,53.0,-99.9,30.18,ESE,110,2.0,3.0,-999,-99.99,,,-99.99,,2013-04-19 11:03:00,
2013-04-19 04:11:00,53.0,-99.9,30.18,North,6,1.0,2.0,-999,-99.99,,,-99.99,,2013-04-19 11:11:00,
2013-04-19 04:22:00,52.0,-99.9,30.18,West,275,2.0,3.0,-999,-99.99,,,-99.99,,2013-04-19 11:22:00,
2013-04-19 04:32:00,52.0,-99.9,30.19,West,265,4.0,6.0,-999,-99.99,,,-99.99,,2013-04-19 11:32:00,
2013-04-19 04:43:00,52.0,-99.9,30.19,West,259,3.0,4.0,-999,-99.99,,,-99.99,,2013-04-19 11:43:00,
2013-04-19 04:53:00,52.0,-99.9,30.19,West,266,3.0,4.0,-999,-99.99,,,-99.99,,2013-04-19 11:53:00,
2013-04-19 05:03:00,52.0,-99.9,30.19,WSW,249,1.0,3.0,-999,-99.99,,,-99.99,,2013-04-19 12:03:00,
2013-04-19 05:12:00,52.0,-99.9,30.19,West,260,1.0,2.0,-999,-99.99,,,-99.99,,2013-04-19 12:12:00,
2013-04-19 05:22:00,52.0,-99.9,30.19,West,280,1.0,2.0,-999,-99.99,,,-99.99,,2013-04-19 12:22:00,
2013-04-19 05:32:00,53.0,-99.9,30.19,West,271,0.0,2.0,-999,-99.99,,,-99.99,,2013-04-19 12:32:00,
2013-04-19 05:42:00,53.0,-99.9,30.19,NE,45,0.0,1.0,-999,-99.99,,,-99.99,,2013-04-19 12:42:00,
2013-04-19 05:53:00,53.0,-99.9,30.19,NNE,23,1.0,1.0,-999,-99.99,,,-99.99,,2013-04-19 12:53:00,
2013-04-19 06:02:00,53.0,-99.9,30.18,East,97,2.0,3.0,-999,-99.99,,,-99.99,,2013-04-19 13:02:00,
2013-04-19 06:11:00,53.0,-99.9,30.18,East,100,4.0,5.0,-999,-99.99,,,-99.99,,2013-04-19 13:11:00,
2013-04-19 06:22:00,53.0,-99.9,30.19,East,94,2.0,4.0,-999,-99.99,,,-99.99,,2013-04-19 13:22:00,
2013-04-19 06:32:00,52.0,-99.9,30.19,NW,318,3.0,4.0,-999,-99.99,,,-99.99,,2013-04-19 13:32:00,
2013-04-19 06:42:00,52.0,-99.9,30.19,NW,308,2.0,4.0,-999,-99.99,,,-99.99,,2013-04-19 13:42:00,
2013-04-19 06:52:00,52.0,-99.9,30.20,North,4,1.0,1.0,-999,-99.99,,,-99.99,,2013-04-19 13:52:00,
2013-04-19 07:02:00,52.0,-99.9,30.20,NNW,342,1.0,2.0,-999,-99.99,,,-99.99,,2013-04-19 14:02:00,
2013-04-19 07:11:00,52.0,-99.9,30.20,NNW,347,1.0,2.0,-999,-99.99,,,-99.99,,2013-04-19 14:11:00,
2013-04-19 07:22:00,52.0,-99.9,30.20,East,89,3.0,3.0,-999,-99.99,,,-99.99,,2013-04-19 14:22:00,
2013-04-19 07:32:00,53.0,-99.9,30.20,ENE,72,5.0,6.0,-999,-99.99,,,-99.99,,2013-04-19 14:32:00,
2013-04-19 07:43:00,53.0,-99.9,30.19,ESE,102,7.0,8.0,-999,-99.99,,,-99.99,,2013-04-19 14:43:00,
2013-04-19 07:52:00,53.0,-99.9,30.20,East,88,5.0,7.0,-999,-99.99,,,-99.99,,2013-04-19 14:52:00,
2013-04-19 08:02:00,54.0,-99.9,30.19,SE,129,7.0,9.0,-999,-99.99,,,-99.99,,2013-04-19 15:02:00,
2013-04-19 08:12:00,54.0,-99.9,30.19,SE,133,9.0,11.0,-999,-99.99,,,-99.99,,2013-04-19 15:12:00,
2013-04-19 08:22:00,55.0,-99.9,30.20,ESE,122,7.0,9.0,-999,-99.99,,,-99.99,,2013-04-19 15:22:00,
2013-04-19 08:33:00,55.0,-99.9,30.21,ESE,110,8.0,9.0,-999,-99.99,,,-99.99,,2013-04-19 15:33:00,
2013-04-19 08:43:00,55.0,-99.9,30.21,ESE,110,8.0,9.0,-999,-99.99,,,-99.99,,2013-04-19 15:43:00,
2013-04-19 08:53:00,55.0,-99.9,30.21,ESE,114,8.0,8.0,-999,-99.99,,,-99.99,,2013-04-19 15:53:00,
2013-04-19 09:03:00,55.0,-99.9,30.21,ESE,102,6.0,7.0,-999,-99.99,,,-99.99,,2013-04-19 16:03:00,
2013-04-19 09:13:00,55.0,-99.9,30.21,East,99,8.0,8.0,-999,-99.99,,,-99.99,,2013-04-19 16:13:00,
2013-04-19 09:23:00,55.0,-99.9,30.20,ESE,104,9.0,10.0,-999,-99.99,,,-99.99,,2013-04-19 16:23:00,
2013-04-19 09:33:00,55.0,-99.9,30.20,East,97,8.0,9.0,-999,-99.99,,,-99.99,,2013-04-19 16:33:00,
2013-04-19 09:43:00,55.0,-99.9,30.20,East,97,9.0,9.0,-999,-99.99,,,-99.99,,2013-04-19 16:43:00,
2013-04-19 09:53:00,55.0,-99.9,30.21,NE,37,5.0,6.0,-999,-99.99,,,-99.99,,2013-04-19 16:53:00,
2013-04-19 10:02:00,55.0,-99.9,30.21,North,355,3.0,5.0,-999,-99.99,,,-99.99,,2013-04-19 17:02:00,
2013-04-19 10:12:00,55.0,-99.9,30.21,North,355,3.0,4.0,-999,-99.99,,,-99.99,,2013-04-19 17:12:00,
2013-04-19 10:22:00,56.0,-99.9,30.22,NNW,346,3.0,5.0,-999,-99.99,,,-99.99,,2013-04-19 17:22:00,
2013-04-19 10:33:00,56.0,-99.9,30.22,NW,325,3.0,4.0,-999,-99.99,,,-99.99,,2013-04-19 17:33:00,
2013-04-19 10:43:00,56.0,-99.9,30.21,NNW,348,3.0,5.0,-999,-99.99,,,-99.99,,2013-04-19 17:43:00,
2013-04-19 10:52:00,56.0,-99.9,30.21,NW,318,6.0,8.0,-999,-99.99,,,-99.99,,2013-04-19 17:52:00,
2013-04-19 11:02:00,56.0,-99.9,30.21,NNW,327,6.0,8.0,-999,-99.99,,,-99.99,,2013-04-19 18:02:00,
2013-04-19 11:13:00,56.0,-99.9,30.21,NW,323,7.0,9.0,-999,-99.99,,,-99.99,,2013-04-19 18:13:00,
2013-04-19 11:23:00,59.0,-99.9,30.21,NW,319,4.0,5.0,-999,-99.99,,,-99.99,,2013-04-19 18:23:00,
2013-04-19 11:33:00,58.0,-99.9,30.21,NW,326,8.0,10.0,-999,-99.99,,,-99.99,,2013-04-19 18:33:00,
2013-04-19 11:43:00,58.0,-99.9,30.21,NW,323,9.0,10.0,-999,-99.99,,,-99.99,,2013-04-19 18:43:00,
2013-04-19 11:52:00,57.0,-99.9,30.20,NNW,345,6.0,9.0,-999,-99.99,,,-99.99,,2013-04-19 18:52:00,
2013-04-19 12:02:00,57.0,-99.9,30.20,NNW,335,7.0,9.0,-999,-99.99,,,-99.99,,2013-04-19 19:02:00,
2013-04-19 12:11:00,57.0,-99.9,30.20,NNW,346,8.0,9.0,-999,-99.99,,,-99.99,,2013-04-19 19:11:00,
2013-04-19 12:22:00,57.0,-99.9,30.20,North,353,6.0,8.0,-999,-99.99,,,-99.99,,2013-04-19 19:22:00,
2013-04-19 12:32:00,58.0,-99.9,30.19,NNW,348,6.0,7.0,-999,-99.99,,,-99.99,,2013-04-19 19:32:00,
2013-04-19 12:42:00,59.0,-99.9,30.19,NNW,339,9.0,10.0,-999,-99.99,,,-99.99,,2013-04-19 19:42:00,
2013-04-19 12:52:00,61.0,-99.9,30.19,NW,315,6.0,9.0,-999,-99.99,,,-99.99,,2013-04-19 19:52:00,
2013-04-19 13:02:00,60.0,-99.9,30.19,NNW,332,8.0,11.0,-999,-99.99,,,-99.99,,2013-04-19 20:02:00,
2013-04-19 13:11:00,64.0,-99.9,30.18,West,272,7.0,11.0,-999,-99.99,,,-99.99,,2013-04-19 20:11:00,
2013-04-19 13:22:00,65.0,-99.9,30.18,West,262,10.0,13.0,-999,-99.99,,,-99.99,,2013-04-19 20:22:00,
2013-04-19 13:32:00,65.0,-99.9,30.17,West,264,9.0,14.0,-999,-99.99,,,-99.99,,2013-04-19 20:32:00,
2013-04-19 13:42:00,65.0,-99.9,30.17,West,262,9.0,13.0,-999,-99.99,,,-99.99,,2013-04-19 20:42:00,
2013-04-19 13:52:00,65.0,-99.9,30.17,West,260,8.0,11.0,-999,-99.99,,,-99.99,,2013-04-19 20:52:00,
2013-04-19 14:01:00,67.0,-99.9,30.16,West,274,7.0,10.0,-999,-99.99,,,-99.99,,2013-04-19 21:01:00,
2013-04-19 14:12:00,68.0,-99.9,30.16,West,265,8.0,11.0,-999,-99.99,,,-99.99,,2013-04-19 21:12:00,
2013-04-19 14:22:00,66.0,-99.9,30.16,West,261,7.0,12.0,-999,-99.99,,,-99.99,,2013-04-19 21:22:00,
2013-04-19 14:32:00,65.0,-99.9,30.16,West,270,8.0,12.0,-999,-99.99,,,-99.99,,2013-04-19 21:32:00,
2013-04-19 14:43:00,64.0,-99.9,30.16,WSW,258,10.0,17.0,-999,-99.99,,,-99.99,,2013-04-19 21:43:00,
2013-04-19 14:53:00,63.0,-99.9,30.15,WSW,258,10.0,15.0,-999,-99.99,,,-99.99,,2013-04-19 21:53:00,
2013-04-19 15:02:00,64.0,-99.9,30.14,WSW,258,8.0,13.0,-999,-99.99,,,-99.99,,2013-04-19 22:02:00,
2013-04-19 15:12:00,66.0,-99.9,30.14,WSW,239,7.0,11.0,-999,-99.99,,,-99.99,,2013-04-19 22:12:00,
2013-04-19 15:23:00,67.0,-99.9,30.14,WSW,251,6.0,10.0,-999,-99.99,,,-99.99,,2013-04-19 22:23:00,
2013-04-19 15:33:00,68.0,-99.9,30.13,SW,223,5.0,11.0,-999,-99.99,,,-99.99,,2013-04-19 22:33:00,
2013-04-19 15:42:00,68.0,-99.9,30.13,SW,223,5.0,11.0,-999,-99.99,,,-99.99,,2013-04-19 22:42:00,
2013-04-19 15:52:00,65.0,-99.9,30.12,WSW,258,10.0,16.0,-999,-99.99,,,-99.99,,2013-04-19 22:52:00,
2013-04-19 16:03:00,63.0,-99.9,30.12,WSW,251,11.0,16.0,-999,-99.99,,,-99.99,,2013-04-19 23:03:00,
2013-04-19 16:11:00,63.0,-99.9,30.12,WSW,250,12.0,20.0,-999,-99.99,,,-99.99,,2013-04-19 23:11:00,
2013-04-19 16:22:00,63.0,-99.9,30.11,WSW,256,9.0,17.0,-999,-99.99,,,-99.99,,2013-04-19 23:22:00,
2013-04-19 16:32:00,64.0,-99.9,30.11,WSW,257,12.0,16.0,-999,-99.99,,,-99.99,,2013-04-19 23:32:00,
2013-04-19 16:42:00,64.0,-99.9,30.11,West,260,10.0,19.0,-999,-99.99,,,-99.99,,2013-04-19 23:42:00,
2013-04-19 16:53:00,64.0,-99.9,30.10,West,270,7.0,15.0,-999,-99.99,,,-99.99,,2013-04-19 23:53:00,
2013-04-19 17:02:00,64.0,-99.9,30.10,West,270,7.0,15.0,-999,-99.99,,,-99.99,,2013-04-20 00:02:00,
2013-04-19 17:12:00,64.0,-99.9,30.10,West,273,2.0,11.0,-999,-99.99,,,-99.99,,2013-04-20 00:12:00,
2013-04-19 17:22:00,66.0,-99.9,30.09,SW,223,2.0,10.0,-999,-99.99,,,-99.99,,2013-04-20 00:22:00,
2013-04-19 17:32:00,64.0,-99.9,30.09,SSE,161,4.0,6.0,-999,-99.99,,,-99.99,,2013-04-20 00:32:00,
2013-04-19 17:42:00,65.0,-99.9,30.09,SSW,198,5.0,8.0,-999,-99.99,,,-99.99,,2013-04-20 00:42:00,
2013-04-19 17:52:00,65.0,-99.9,30.09,SSE,165,2.0,6.0,-999,-99.99,,,-99.99,,2013-04-20 00:52:00,
2013-04-19 18:02:00,66.0,-99.9,30.08,SSW,200,1.0,5.0,-999,-99.99,,,-99.99,,2013-04-20 01:02:00,
2013-04-19 18:11:00,63.0,-99.9,30.08,East,86,2.0,8.0,-999,-99.99,,,-99.99,,2013-04-20 01:11:00,
2013-04-19 18:21:00,63.0,-99.9,30.07,ESE,113,3.0,5.0,-999,-99.99,,,-99.99,,2013-04-20 01:21:00,
2013-04-19 18:32:00,64.0,-99.9,30.07,South,172,5.0,7.0,-999,-99.99,,,-99.99,,2013-04-20 01:32:00,
2013-04-19 18:42:00,61.0,-99.9,30.07,ENE,68,4.0,9.0,-999,-99.99,,,-99.99,,2013-04-20 01:42:00,
2013-04-19 18:52:00,63.0,-99.9,30.07,East,83,2.0,5.0,-999,-99.99,,,-99.99,,2013-04-20 01:52:00,
2013-04-19 19:02:00,62.0,-99.9,30.07,SSE,155,6.0,10.0,-999,-99.99,,,-99.99,,2013-04-20 02:02:00,
2013-04-19 19:11:00,62.0,-99.9,30.07,ENE,68,3.0,8.0,-999,-99.99,,,-99.99,,2013-04-20 02:11:00,
2013-04-19 19:22:00,61.0,-99.9,30.06,East,85,4.0,5.0,-999,-99.99,,,-99.99,,2013-04-20 02:22:00,
2013-04-19 19:32:00,61.0,-99.9,30.06,ESE,115,2.0,6.0,-999,-99.99,,,-99.99,,2013-04-20 02:32:00,
2013-04-19 19:42:00,63.0,-99.9,30.06,SE,139,-999.0,3.0,-999,-99.99,,,-99.99,,2013-04-20 02:42:00,
2013-04-19 19:52:00,60.0,-99.9,30.06,NE,43,3.0,6.0,-999,-99.99,,,-99.99,,2013-04-20 02:52:00,
2013-04-19 20:01:00,61.0,-99.9,30.06,North,7,1.0,4.0,-999,-99.99,,,-99.99,,2013-04-20 03:01:00,
2013-04-19 20:11:00,61.0,-99.9,30.05,ESE,123,2.0,3.0,-999,-99.99,,,-99.99,,2013-04-20 03:11:00,
2013-04-19 20:21:00,61.0,-99.9,30.05,East,97,2.0,6.0,-999,-99.99,,,-99.99,,2013-04-20 03:21:00,
2013-04-19 20:33:00,62.0,-99.9,30.05,East,100,5.0,6.0,-999,-99.99,,,-99.99,,2013-04-20 03:33:00,
2013-04-19 20:43:00,62.0,-99.9,30.05,ENE,62,2.0,6.0,-999,-99.99,,,-99.99,,2013-04-20 03:43:00,
2013-04-19 20:53:00,61.0,-99.9,30.05,ESE,109,3.0,4.0,-999,-99.99,,,-99.99,,2013-04-20 03:53:00,
2013-04-19 21:03:00,61.0,-99.9,30.05,ESE,109,3.0,4.0,-999,-99.99,,,-99.99,,2013-04-20 04:03:00,
2013-04-19 21:12:00,60.0,-99.9,30.06,SE,134,4.0,6.0,-999,-99.99,,,-99.99,,2013-04-20 04:12:00,
2013-04-19 21:23:00,59.0,-99.9,30.06,East,100,3.0,5.0,-999,-99.99,,,-99.99,,2013-04-20 04:23:00,
2013-04-19 21:33:00,59.0,-99.9,30.06,SE,138,8.0,10.0,-999,-99.99,,,-99.99,,2013-04-20 04:33:00,
2013-04-19 21:43:00,60.0,-99.9,30.06,SSE,154,4.0,8.0,-999,-99.99,,,-99.99,,2013-04-20 04:43:00,
2013-04-19 21:53:00,62.0,-99.9,30.06,WSW,240,2.0,5.0,-999,-99.99,,,-99.99,,2013-04-20 04:53:00,
2013-04-19 22:02:00,63.0,-99.9,30.06,SE,142,5.0,7.0,-999,-99.99,,,-99.99,,2013-04-20 05:02:00,
2013-04-19 22:12:00,60.0,-99.9,30.06,East,79,5.0,9.0,-999,-99.99,,,-99.99,,2013-04-20 05:12:00,
2013-04-19 22:22:00,61.0,-99.9,30.06,ESE,102,10.0,12.0,-999,-99.99,,,-99.99,,2013-04-20 05:22:00,
2013-04-19 22:32:00,63.0,-99.9,30.06,South,191,4.0,6.0,-999,-99.99,,,-99.99,,2013-04-20 05:32:00,
2013-04-19 22:43:00,63.0,-99.9,30.06,South,185,3.0,5.0,-999,-99.99,,,-99.99,,2013-04-20 05:43:00,
2013-04-19 22:52:00,63.0,-99.9,30.06,WSW,254,1.0,3.0,-999,-99.99,,,-99.99,,2013-04-20 05:52:00,
2013-04-19 23:02:00,61.0,-99.9,30.06,East,97,2.0,3.0,-999,-99.99,,,-99.99,,2013-04-20 06:02:00,
2013-04-19 23:12:00,60.0,-99.9,30.06,West,279,1.0,3.0,-999,-99.99,,,-99.99,,2013-04-20 06:12:00,
2013-04-19 23:22:00,60.0,-99.9,30.06,NNW,340,0.0,2.0,-999,-99.99,,,-99.99,,2013-04-20 06:22:00,
2013-04-19 23:32:00,61.0,-99.9,30.06,WSW,258,2.0,4.0,-999,-99.99,,,-99.99,,2013-04-20 06:32:00,
2013-04-19 23:42:00,61.0,-99.9,30.06,West,259,2.0,4.0,-999,-99.99,,,-99.99,,2013-04-20 06:42:00,
2013-04-19 23:52:00,60.0,-99.9,30.06,SSW,207,1.0,4.0,-999,-99.99,,,-99.99,,2013-04-20 06:52:00,